DMSP 5D-3 F18 (USA 210)

Last updated on Tue Jul 01 2025 00:02:21 GMT+0000 (Coordinated Universal Time)

1 35951U 09057A 25181.58144660 .00000195 00000+0 12416-3 0 9996 2 35951 98.8601 159.0089 0011274 164.5146 195.6374 14.14644227809873
UTC large
Height (km)
Speed (km/s)
/
Latitude / Longitude
Inclination (degrees)
Orbital Period (minutes)
Azimuth
Elevation
Range (km)
Doppler Factor

Next 0 passes for location: London (51.5072 / 0.1276)

Sorry there are no passes over London.